This is the latest recevied weather packets stored in our database for station/object KJ4UBX-11. If no packets are shown the sender has not sent any weather packets the latest 10 day(s).
| Time | Temp. | Humidity | Pressure | Rain* | Wind** | Luminosity | Snow |
|---|---|---|---|---|---|---|---|
| 1778027451 | 19.44° C | 58% | 1006.1 hPa | - | - | - | - |
| 1778026869 | 19.44° C | 57% | 1005.8 hPa | - | - | - | - |
| 1778026285 | 20° C | 57% | 1005.6 hPa | - | - | - | - |
| 1778025703 | 20° C | 56% | 1005 hPa | - | - | - | - |
| 1778025121 | 20.56° C | 55% | 1004.9 hPa | - | - | - | - |
| 1778024537 | 21.11° C | 55% | 1005.1 hPa | - | - | - | - |
| 1778023954 | 21.11° C | 54% | 1005.2 hPa | - | - | - | - |
| 1778023371 | 21.11° C | 54% | 1005.1 hPa | - | - | - | - |
| 1778022786 | 20.56° C | 54% | 1005.1 hPa | - | - | - | - |
| 1778022203 | 20.56° C | 55% | 1005 hPa | - | - | - | - |
| 1778021620 | 20.56° C | 52% | 1003.7 hPa | - | - | - | - |
| 1778021037 | 20.56° C | 52% | 1003.4 hPa | - | - | - | - |
| 1778020455 | 21.11° C | 51% | 1003.3 hPa | - | - | - | - |
| 1778019872 | 21.67° C | 51% | 1003.1 hPa | - | - | - | - |
| 1778019290 | 21.67° C | 50% | 1003 hPa | - | - | - | - |
| 1778018706 | 21.67° C | 50% | 1002.9 hPa | - | - | - | - |
| 1778018123 | 22.22° C | 50% | 1002.9 hPa | - | - | - | - |
| 1778017540 | 22.22° C | 50% | 1002.9 hPa | - | - | - | - |
| 1778016957 | 22.22° C | 50% | 1002.9 hPa | - | - | - | - |
| 1778016373 | 22.22° C | 50% | 1002.6 hPa | - | - | - | - |
| 1778015790 | 22.22° C | 49% | 1002.7 hPa | - | - | - | - |
| 1778015207 | 22.78° C | 48% | 1002.7 hPa | - | - | - | - |
| 1778014625 | 23.33° C | 47% | 1002.7 hPa | - | - | - | - |
| 1778014042 | 23.33° C | 47% | 1002.6 hPa | - | - | - | - |
| 1778012865 | 23.33° C | 46% | 1002.7 hPa | - | - | - | - |
* Rain since midnight (hover to see other rain measurements)
** Current wind speed in m/s (hover to see current wind gust speed)